STARLINK-32642 (62211 NORAD) Tracking and Keplerian Element Data

This shows tracking and keplerian element data for the satellite.

Feedback or suggestion? Click here.




ElementValue
Catalog62211
NameSTARLINK-32642
Epoch Orbit946
Epoch Day34.2898608
Epoch Year2025
RAAN7.5822
Inclination43.0019
Eccentricity8.2E-05
Argument of Perigee254.4558
Mean Anonmoly105.6205
Mean Motion15.32093348
Decay Rate-3E-07
L11 62211U 24229V 25034.28986080 -.00000030 00000+0 77335-5 0 9999
L22 62211 43.0019 7.5822 0000820 254.4558 105.6205 15.32093348 9464



Live tracking and technical data element details for STARLINK-32642 (NORAD 62211). STARLINK-32642 can be tracked NOW for your location showing map with azimuth and elevation plus other details from your city location.







IsCatalogInMostPopularTable: catalog: 62211, numindb: 12
Update: records affected: 1



GetName: 62211 STARLINK-32642

Hit Count: updated at: Sun, 18 May 2025 23:05:52 GMT